Location: Adaghas
(31.2259°N, 9.0496°W)
Time: 03:58:17
(UTC+00:00)

Okean-O - Pass Details

Date: 18 September 2020
Orbit: 639 x 641 km, 98.2° (Epoch: 23 October)

Event Time Altitude Azimuth Distance (km) Brightness Sun altitude
Rises 19:39:06 0° 183° (S) 2,928 6.0 -13.9°
Reaches altitude 10° 19:41:24 10° 191° (S) 2,023 5.2 -14.4°
Maximum altitude 19:45:32 40° 261° (W) 952 4.1 -15.3°
Drops below altitude 10° 19:49:42 10° 331° (NNW) 2,035 5.8 -16.1°
Sets 19:52:01 0° 339° (NNW) 2,948 6.5 -16.6°
